Wind_Speed
19 19 19 20 21 21 22 23 23 23 23 23 23 23 24 24 24 24 25 26 26 26 27 27 27 26 26 26 25 24 25 25 25 25 26 25 25 26
19 19 20 21 21 21 22 23 23 24 24 25 25 25 25 26 26 26 26 27 27 28 28 28 28 28 27 27 26 26 25 25 24 23 23 24 25 26
20 21 21 22 22 22 23 24 24 24 25 25 26 26 27 27 27 27 27 28 28 28 28 28 28 28 28 28 27 27 26 25 23 24 23 23 24 25
21 21 22 22 22 23 23 24 24 24 24 24 25 26 27 27 27 28 28 29 29 29 29 29 29 29 29 28 29 28 28 27 25 25 25 25 25 26
21 22 22 22 22 22 23 23 24 24 24 25 25 25 26 27 27 28 28 28 28 29 29 30 30 29 29 29 29 29 29 29 27 26 26 26 26 26
22 22 22 22 23 23 24 24 25 25 26 26 26 25 25 26 27 27 28 28 28 29 29 29 30 30 30 30 29 29 29 29 29 28 27 27 28 28
23 23 23 24 24 25 25 26 26 26 27 27 26 26 26 26 27 28 28 29 29 29 29 29 30 31 31 31 30 30 30 30 29 28 29 29 29 28
24 24 24 25 26 26 27 27 28 28 27 27 27 27 28 28 28 28 28 29 29 30 29 29 29 30 30 31 31 31 30 30 30 29 29 29 29 29
25 26 26 27 27 27 28 28 28 28 28 28 28 29 29 29 29 29 29 29 29 29 29 29 29 29 30 30 31 31 31 30 30 30 30 29 29 29
26 27 28 28 28 29 29 29 29 28 29 29 30 30 30 30 31 31 30 30 30 30 30 30 30 30 30 29 30 31 31 30 31 30 30 30 29 29
27 27 28 29 29 30 30 29 29 29 31 32 32 32 32 32 32 31 31 31 30 30 30 30 30 30 30 31 30 30 30 31 31 31 31 30 29 29
28 28 28 29 29 30 30 30 30 31 32 32 33 33 33 33 32 32 32 32 31 31 31 31 31 31 31 31 31 31 31 31 30 30 31 31 30 29
29 29 29 29 30 30 31 31 31 32 32 32 32 33 33 33 33 33 32 32 32 32 32 32 32 32 32 32 32 32 31 31 31 31 30 30 30 30
30 30 30 30 30 31 31 31 32 32 33 33 33 33 33 34 34 33 32 32 32 32 33 32 32 32 33 33 33 33 32 32 32 31 31 30 30 31
31 31 30 30 31 31 31 32 32 32 33 33 33 33 33 33 34 33 33 32 32 32 32 32 32 32 32 32 32 33 33 32 32 32 31 31 31 31
31 31 31 31 31 31 31 32 32 32 33 33 33 33 33 33 32 32 32 32 32 31 31 32 32 32 32 32 32 32 33 33 32 32 32 32 32 32
31 31 31 31 31 31 31 31 31 31 32 31 31 31 31 31 31 31 31 31 31 31 30 31 31 32 32 32 31 32 32 33 33 32 31 31 32 32
32 32 32 31 31 31 31 31 31 31 30 30 29 29 29 29 29 30 31 31 31 31 31 31 31 31 32 32 32 32 32 33 33 34 33 32 32 33
32 31 31 31 31 31 31 30 30 29 29 28 29 28 28 28 28 29 30 30 30 31 31 31 32 32 31 31 32 32 32 31 31 33 34 33 33 33
31 31 31 30 30 30 30 30 29 29 28 28 28 28 28 28 28 29 29 29 29 29 30 31 31 31 31 31 31 31 30 30 30 31 31 32 33 33
31 31 31 30 30 29 29 29 28 28 28 27 27 27 28 28 29 29 28 28 28 29 29 29 30 31 31 31 31 31 31 30 30 30 30 31 31 32
30 30 30 29 28 28 28 28 28 27 27 27 27 27 27 27 27 27 27 27 27 27 28 28 30 30 31 30 30 30 31 31 31 31 30 30 30 30
29 29 28 28 28 28 28 27 27 27 27 27 27 27 26 26 26 26 25 26 26 26 26 27 28 28 28 29 29 30 31 32 32 32 31 31 30 30
Wind_Direction
273 271 270 269 267 266 265 264 264 264 266 266 265 263 264 264 265 265 263 262 261 262 261 261 262 262 261 261 261 262 263 263 262 261 259 259 259 258
274 272 270 270 269 267 266 265 265 266 266 266 266 265 264 265 265 265 265 264 263 262 263 262 261 260 260 260 259 260 262 263 261 261 261 259 258 257
274 273 272 271 269 268 268 267 267 267 267 266 267 267 265 264 263 264 264 265 264 263 262 261 260 259 259 259 258 258 259 260 260 259 261 260 258 257
275 273 271 271 270 269 269 269 268 269 269 268 267 268 267 266 265 265 266 266 265 264 262 260 260 259 259 259 258 258 259 259 258 259 259 259 258 258
276 275 273 271 270 269 269 269 269 270 271 270 270 269 267 267 266 267 268 267 266 264 262 260 260 260 259 259 259 259 260 260 258 258 258 259 259 259
278 276 274 272 272 271 270 270 270 271 271 271 271 269 268 268 268 269 269 269 267 265 263 262 260 259 258 258 259 259 258 259 259 259 259 260 260 260
278 276 274 273 273 272 272 271 272 272 272 273 272 270 268 269 270 270 270 269 267 266 265 262 260 259 258 258 257 258 258 258 259 260 259 260 260 259
279 276 275 274 274 274 273 272 272 272 273 273 273 271 271 270 270 271 271 269 268 267 265 263 261 259 258 257 257 257 258 259 260 261 261 259 260 259
279 277 276 275 275 275 275 273 273 272 272 273 272 273 272 271 271 271 271 270 268 266 264 261 261 260 259 258 257 258 258 259 260 262 262 260 258 258
280 280 278 277 276 276 276 275 273 271 272 273 273 273 272 271 271 271 270 269 267 266 264 262 260 260 259 259 258 257 258 260 260 261 261 260 258 258
281 281 280 278 277 276 276 275 274 273 273 273 274 274 274 272 271 271 269 268 267 266 265 263 260 259 258 259 259 259 260 261 260 260 260 259 257 257
281 281 280 280 280 278 276 275 275 274 275 275 275 275 273 272 271 271 270 268 266 264 263 262 260 259 259 258 258 258 259 260 261 261 259 258 258 256
282 281 281 280 280 279 278 276 276 275 275 275 275 275 273 272 273 271 270 268 267 264 262 261 260 259 259 257 257 258 260 260 261 261 259 259 259 259
282 282 282 281 280 280 279 278 277 276 275 275 275 275 274 272 272 271 270 267 266 266 263 260 258 258 258 258 258 257 258 259 260 260 260 259 259 259
282 281 281 281 281 281 280 278 277 277 276 275 275 275 274 273 271 270 267 266 265 265 262 260 258 258 258 258 257 256 256 258 260 259 259 258 258 259
283 283 282 282 282 282 282 280 278 276 277 276 275 274 273 272 271 268 266 264 264 264 262 260 257 257 258 257 256 257 258 258 259 259 259 258 258 258
285 284 283 282 282 282 282 281 279 277 277 276 274 273 272 272 269 266 265 263 262 261 260 259 257 257 257 256 257 258 258 258 258 258 258 258 258 259
284 285 284 283 281 282 282 282 280 277 276 274 272 271 271 271 269 267 265 264 262 260 259 259 259 257 257 256 257 258 259 259 259 258 258 258 258 258
284 284 284 283 281 281 282 282 281 278 275 273 271 270 269 269 269 268 265 263 261 259 257 257 257 257 256 256 255 258 259 259 258 258 258 258 258 258
285 284 284 283 283 281 282 282 280 276 274 273 272 271 269 269 269 268 266 264 262 261 258 257 257 256 256 257 256 258 258 257 258 259 259 260 259 259
285 285 284 283 283 282 282 281 280 276 274 273 272 271 270 270 270 268 265 263 262 260 257 255 254 255 256 257 257 257 256 256 258 259 260 261 260 258
285 284 284 283 284 283 281 280 279 277 276 274 272 271 271 271 270 268 265 263 262 258 255 255 255 255 256 257 257 256 254 256 258 261 261 262 260 260
285 284 283 282 284 284 281 279 278 278 277 276 274 273 272 272 271 269 267 263 261 258 257 257 257 257 258 258 257 256 255 256 258 260 261 261 262 263
Height
5786 5786 5786 5785 5785 5785 5785 5785 5786 5786 5786 5786 5786 5786 5786 5786 5786 5786 5787 5787 5787 5788 5789 5789 5790 5791 5792 5792 5793 5794 5794 5795 5795 5795 5796 5797 5798 5799
5781 5781 5780 5780 5780 5779 5779 5779 5779 5779 5779 5779 5779 5779 5779 5779 5779 5779 5780 5780 5780 5781 5781 5782 5783 5784 5784 5786 5786 5787 5787 5788 5788 5788 5789 5790 5791 5792
5776 5775 5775 5774 5773 5773 5773 5773 5773 5773 5772 5772 5772 5772 5772 5772 5772 5772 5772 5772 5773 5773 5774 5774 5775 5776 5777 5778 5779 5780 5781 5781 5781 5782 5782 5783 5784 5785
5770 5769 5768 5768 5767 5767 5767 5767 5766 5766 5766 5765 5765 5764 5764 5764 5764 5764 5764 5764 5764 5765 5766 5766 5767 5768 5769 5771 5772 5773 5774 5774 5775 5775 5776 5776 5777 5778
5764 5763 5762 5761 5761 5761 5760 5760 5760 5759 5759 5758 5758 5757 5756 5756 5756 5756 5756 5756 5756 5757 5757 5758 5759 5760 5761 5763 5764 5765 5766 5767 5768 5768 5769 5769 5770 5771
5758 5756 5756 5755 5755 5754 5754 5753 5753 5752 5751 5751 5750 5749 5749 5748 5748 5748 5748 5748 5748 5748 5749 5750 5751 5752 5753 5755 5756 5758 5759 5760 5760 5761 5761 5761 5762 5763
5751 5750 5749 5748 5748 5747 5747 5746 5745 5745 5744 5743 5742 5741 5741 5741 5741 5740 5740 5739 5739 5740 5740 5741 5742 5744 5745 5746 5748 5749 5750 5752 5752 5753 5754 5754 5754 5754
5744 5743 5742 5741 5741 5740 5739 5738 5738 5737 5736 5735 5734 5734 5733 5733 5733 5732 5731 5731 5731 5732 5732 5733 5734 5735 5736 5738 5740 5741 5742 5743 5744 5745 5746 5746 5745 5746
5737 5736 5735 5734 5733 5732 5731 5730 5729 5728 5728 5727 5727 5726 5725 5725 5724 5724 5723 5722 5723 5723 5723 5724 5725 5726 5728 5729 5731 5732 5734 5735 5736 5736 5737 5737 5737 5737
5729 5728 5727 5725 5724 5724 5723 5722 5721 5720 5720 5719 5718 5717 5716 5716 5715 5715 5714 5714 5714 5714 5715 5716 5717 5718 5719 5720 5722 5723 5725 5726 5727 5728 5729 5729 5729 5729
5721 5720 5718 5717 5716 5715 5714 5713 5712 5711 5710 5710 5709 5708 5707 5706 5705 5705 5705 5705 5705 5705 5706 5707 5708 5709 5710 5711 5713 5714 5716 5717 5718 5718 5719 5720 5720 5721
5713 5711 5710 5709 5707 5705 5704 5703 5702 5701 5701 5700 5699 5698 5697 5696 5696 5695 5695 5695 5695 5696 5696 5697 5698 5700 5701 5702 5703 5705 5706 5707 5708 5709 5710 5711 5711 5712
5704 5702 5701 5700 5698 5696 5695 5694 5693 5692 5690 5689 5689 5688 5687 5686 5685 5685 5685 5685 5685 5686 5687 5688 5689 5690 5691 5693 5694 5695 5697 5698 5699 5700 5700 5701 5702 5703
5695 5694 5692 5690 5689 5687 5686 5684 5683 5681 5680 5679 5678 5677 5676 5675 5675 5675 5675 5675 5675 5675 5676 5677 5679 5680 5681 5683 5684 5686 5687 5688 5689 5690 5691 5692 5693 5693
5685 5684 5682 5680 5679 5677 5676 5674 5673 5671 5670 5668 5667 5666 5665 5664 5664 5664 5664 5664 5664 5665 5666 5667 5668 5670 5671 5673 5674 5675 5677 5678 5679 5680 5681 5682 5683 5684
5676 5674 5672 5671 5669 5667 5666 5664 5662 5661 5659 5658 5656 5655 5654 5654 5653 5653 5653 5654 5654 5655 5655 5657 5658 5660 5661 5663 5664 5665 5667 5668 5669 5670 5671 5672 5673 5674
5666 5664 5663 5661 5659 5658 5656 5654 5652 5651 5649 5647 5646 5645 5644 5643 5643 5642 5643 5643 5644 5645 5646 5647 5648 5649 5651 5653 5654 5655 5657 5658 5659 5660 5661 5662 5663 5664
5656 5655 5653 5651 5649 5648 5646 5644 5642 5641 5639 5637 5636 5635 5635 5634 5633 5633 5633 5633 5634 5635 5636 5637 5638 5640 5641 5643 5644 5645 5646 5648 5648 5649 5650 5652 5653 5654
5646 5645 5643 5641 5639 5637 5636 5634 5632 5630 5629 5627 5626 5626 5625 5625 5624 5624 5624 5624 5624 5625 5626 5627 5629 5630 5632 5633 5634 5635 5636 5637 5638 5639 5639 5641 5642 5643
5636 5634 5633 5631 5629 5627 5626 5624 5622 5621 5619 5618 5617 5616 5616 5615 5615 5614 5614 5614 5615 5616 5617 5618 5619 5621 5622 5624 5625 5626 5626 5627 5628 5629 5629 5630 5631 5632
5626 5624 5622 5620 5618 5617 5615 5614 5612 5611 5610 5609 5608 5607 5607 5606 5606 5605 5605 5605 5606 5606 5607 5609 5610 5611 5613 5614 5615 5616 5616 5617 5618 5618 5619 5620 5621 5621
5616 5614 5612 5610 5608 5607 5605 5604 5603 5602 5601 5600 5599 5598 5598 5597 5597 5596 5596 5597 5597 5598 5599 5600 5601 5602 5603 5604 5605 5606 5607 5608 5608 5608 5609 5610 5610 5611
5606 5604 5602 5601 5599 5597 5596 5594 5593 5592 5591 5590 5590 5589 5589 5588 5588 5588 5588 5588 5588 5589 5590 5591 5592 5592 5593 5594 5595 5596 5597 5598 5599 5599 5600 5600 5600 5601